DW0664 Weather Reports


Display with metric or nautical units.
time (UTC)temp
F
wind
direction
speed
MPH
gust
MPH
rain 1hr
in
rain 24hr
in
rain mn
in
humidity
%
barometer
mb
20260906083620 79 62 0.0 0.0 0.00 0.00 0.00 90 1014.2
20260906083115 79 63 0.0 0.0 0.00 0.00 0.00 90 1014.1
20260906082611 79 61 0.0 0.0 0.00 0.00 0.00 90 1014.3
20260906082106 79 53 0.0 0.0 0.00 0.00 0.00 90 1014.4
20260906081602 79 64 0.0 1.0 0.00 0.00 0.00 90 1014.4
20260906081057 79 70 0.0 1.0 0.00 0.00 0.00 90 1014.5
20260906080554 79 71 0.0 1.0 0.00 0.00 0.00 90 1014.5
20260906080049 79 67 0.0 0.0 0.00 0.00 0.00 90 1014.6
20260906075543 79 65 0.0 0.0 0.00 0.00 0.00 90 1014.2
20260906075038 79 63 0.0 0.0 0.00 0.00 0.00 90 1014.5
20260906074533 79 57 0.0 0.0 0.00 0.00 0.00 90 1014.4
20260906074031 79 65 0.0 0.0 0.00 0.00 0.00 90 1014.6
20260906073527 79 64 0.0 1.0 0.00 0.00 0.00 90 1014.6
20260906073023 79 52 0.0 0.0 0.00 0.00 0.00 90 1014.7
20260906072517 79 61 0.0 0.0 0.00 0.00 0.00 90 1014.9
20260906072014 79 60 0.0 0.0 0.00 0.00 0.00 90 1014.8
20260906071510 79 357 0.0 0.0 0.00 0.00 0.00 90 1014.8
20260906071004 79 61 0.0 0.0 0.00 0.00 0.00 90 1014.9
20260906070501 79 62 0.0 1.0 0.00 0.00 0.00 90 1014.9
20260906065956 79 69 0.0 1.0 0.00 0.00 0.00 90 1014.9
20260906065455 79 62 0.0 0.0 0.00 0.00 0.00 89 1015.0
20260906064951 79 66 0.0 0.0 0.00 0.00 0.00 89 1014.9
20260906064448 79 60 0.0 1.0 0.00 0.00 0.00 89 1015.0
20260906063947 79 67 0.0 1.0 0.00 0.00 0.00 89 1014.9
20260906063443 79 52 0.0 3.0 0.00 0.00 0.00 89 1014.9
20260906062938 79 92 1.0 2.0 0.00 0.00 0.00 89 1014.9
20260906062433 79 77 0.0 0.0 0.00 0.00 0.00 89 1014.9
20260906061927 79 60 0.0 0.0 0.00 0.00 0.00 89 1014.7
20260906061423 80 58 0.0 1.0 0.00 0.00 0.00 89 1015.2
20260906060917 80 69 0.0 1.0 0.00 0.00 0.00 89 1014.9
20260906060415 80 97 1.0 3.0 0.00 0.00 0.00 89 1015.2
20260906055911 80 97 1.0 3.0 0.00 0.00 0.00 88 1015.3
20260906055407 80 70 0.0 1.0 0.00 0.00 0.00 88 1015.2
20260906054902 80 66 0.0 3.0 0.00 0.00 0.00 88 1014.9
20260906054356 80 60 2.0 3.0 0.00 0.00 0.00 88 1015.0
20260906053853 80 54 2.0 2.0 0.00 0.00 0.00 88 1014.9
20260906053348 80 80 1.0 3.0 0.00 0.00 0.00 88 1014.9
20260906052844 80 89 1.0 3.0 0.00 0.00 0.00 88 1014.9
20260906052340 80 73 1.0 2.0 0.00 0.00 0.00 88 1014.9
20260906051837 80 44 0.0 1.0 0.00 0.00 0.00 88 1015.2
20260906051336 80 127 0.0 1.0 0.00 0.00 0.00 88 1015.2
20260906050832 80 76 0.0 1.0 0.00 0.00 0.00 88 1015.2
20260906050327 80 128 1.0 3.0 0.00 0.00 0.00 88 1015.2
20260906045825 80 59 1.0 2.0 0.00 0.00 0.00 87 1015.3
20260906045320 80 171 2.0 3.0 0.00 0.00 0.00 87 1015.4
20260906044817 79 114 1.0 2.0 0.00 0.00 0.00 87 1015.3
20260906044311 80 83 1.0 1.0 0.00 0.00 0.00 87 1015.4
20260906043807 80 80 0.0 1.0 0.00 0.00 0.00 87 1015.2
20260906043303 80 71 0.0 3.0 0.00 0.00 0.00 86 1015.3
20260906042802 80 66 0.0 1.0 0.00 0.00 0.00 86 1015.0
20260906042302 80 79 2.0 2.0 0.00 0.00 0.00 86 1015.0
20260906041757 80 72 0.0 0.0 0.00 0.00 0.00 86 1014.9
20260906041252 80 70 0.0 1.0 0.00 0.00 0.00 86 1015.2
20260906040748 80 74 1.0 1.0 0.00 0.00 0.00 86 1015.2
20260906040242 80 69 0.0 2.0 0.00 0.00 0.00 86 1015.0
20260906035738 80 68 0.0 2.0 0.00 0.00 0.00 85 1014.9
20260906035234 80 98 1.0 2.0 0.00 0.00 0.00 85 1014.9
20260906034734 80 65 0.0 2.0 0.00 0.00 0.00 85 1014.9
20260906034229 80 63 1.0 3.0 0.00 0.00 0.00 84 1014.9
20260906033724 80 88 1.0 1.0 0.00 0.00 0.00 84 1015.0
20260906033218 80 67 0.0 1.0 0.00 0.00 0.00 84 1014.9
20260906032715 80 89 1.0 2.0 0.00 0.00 0.00 84 1015.0
20260906032210 80 94 1.0 3.0 0.00 0.00 0.00 84 1015.3
20260906031705 80 94 1.0 3.0 0.00 0.00 0.00 84 1015.4
20260906031200 80 93 1.0 2.0 0.00 0.00 0.00 84 1015.0
20260906030659 80 69 1.0 4.0 0.00 0.00 0.00 85 1015.2
20260906030154 80 99 0.0 2.0 0.00 0.00 0.00 85 1015.2
20260906025653 80 102 1.0 3.0 0.00 0.00 0.00 85 1015.3
20260906025148 80 77 1.0 3.0 0.00 0.00 0.00 85 1015.0
20260906024642 80 107 3.0 4.0 0.00 0.00 0.00 85 1015.2
20260906024137 80 184 1.0 3.0 0.00 0.00 0.00 84 1015.0
20260906023633 80 66 0.0 1.0 0.00 0.00 0.00 84 1014.9
20260906023132 80 86 0.0 3.0 0.00 0.00 0.00 83 1014.8
20260906022627 80 87 2.0 3.0 0.00 0.00 0.00 83 1014.7
20260906022123 81 74 0.0 2.0 0.00 0.00 0.00 82 1014.7
20260906021619 81 126 2.0 2.0 0.00 0.00 0.00 82 1014.6
20260906021118 81 95 1.0 2.0 0.00 0.00 0.00 81 1014.8
20260906020617 81 73 0.0 1.0 0.00 0.00 0.00 81 1014.4
20260906020112 81 73 1.0 1.0 0.00 0.00 0.00 80 1014.5
20260906015612 81 67 1.0 1.0 0.00 0.00 0.00 79 1014.4
20260906015110 82 80 2.0 2.0 0.00 0.00 0.00 79 1014.4
20260906014605 82 98 1.0 3.0 0.00 0.00 0.00 78 1014.5
20260906014102 82 108 1.0 1.0 0.00 0.00 0.00 78 1014.1
20260906013557 82 65 0.0 3.0 0.00 0.00 0.00 78 1013.8
20260906013052 82 63 0.0 3.0 0.00 0.00 0.00 78 1013.6
20260906012547 82 46 1.0 3.0 0.00 0.00 0.00 77 1014.0
20260906012046 82 83 0.0 1.0 0.00 0.00 0.00 76 1013.8
20260906011543 82 86 1.0 2.0 0.00 0.00 0.00 76 1013.9
20260906011042 82 69 0.0 3.0 0.00 0.00 0.00 76 1013.8
20260906010538 83 85 1.0 2.0 0.00 0.00 0.00 75 1013.7
20260906010034 83 64 0.0 4.0 0.00 0.00 0.00 74 1013.9
20260906005533 83 91 3.0 3.0 0.00 0.00 0.00 74 1013.8
20260906005032 83 106 2.0 3.0 0.00 0.00 0.00 73 1013.9
20260906004532 83 131 3.0 6.0 0.00 0.00 0.00 73 1014.1
20260906004027 84 116 1.0 2.0 0.00 0.00 0.00 73 1014.3
20260906003523 84 83 1.0 3.0 0.00 0.00 0.00 72 1014.3
20260906003019 84 103 1.0 3.0 0.00 0.00 0.00 71 1014.3
20260906002519 84 62 1.0 3.0 0.00 0.00 0.00 70 1014.3
20260906002013 85 240 2.0 3.0 0.00 0.00 0.00 70 1014.1
20260906001509 85 61 2.0 8.0 0.00 0.00 0.00 69 1014.4
20260906001003 85 101 4.0 6.0 0.00 0.00 0.00 68 1014.3
20260906000459 85 82 2.0 4.0 0.00 0.00 0.00 68 1014.2
20260905235954 86 58 0.0 1.0 0.00 0.00 0.00 68 1014.2
20260905235453 86 109 4.0 6.0 0.00 0.00 0.00 67 1014.1
20260905234948 86 60 0.0 2.0 0.00 0.00 0.00 67 1014.1
20260905234444 86 58 1.0 7.0 0.00 0.00 0.00 66 1014.2
20260905233938 87 92 1.0 4.0 0.00 0.00 0.00 66 1014.1
20260905233434 87 74 2.0 4.0 0.00 0.00 0.00 65 1013.9
20260905232932 87 68 1.0 3.0 0.00 0.00 0.00 65 1013.9
20260905232429 88 30 1.0 6.0 0.00 0.00 0.00 65 1013.7
20260905231924 88 87 1.0 3.0 0.00 0.00 0.00 66 1013.9
20260905231420 88 63 0.0 3.0 0.00 0.00 0.00 66 1013.7
20260905230916 88 63 0.0 2.0 0.00 0.00 0.00 66 1013.8
20260905230414 89 68 3.0 6.0 0.00 0.00 0.00 66 1013.7
20260905225913 89 60 0.0 0.0 0.00 0.00 0.00 69 1013.6
20260905225408 88 60 0.0 0.0 0.00 0.00 0.00 69 1013.5
20260905224903 88 62 0.0 0.0 0.00 0.00 0.00 70 1013.6
20260905224359 88 63 0.0 0.0 0.00 0.00 0.00 70 1013.7
20260905223853 88 65 0.0 0.0 0.00 0.00 0.00 69 1013.5
20260905223351 89 80 1.0 1.0 0.00 0.00 0.00 68 1013.8
20260905222845 90 59 0.0 1.0 0.00 0.00 0.00 66 1014.0
20260905222344 90 61 0.0 0.0 0.00 0.00 0.00 64 1014.0
20260905221840 90 58 0.0 1.0 0.00 0.00 0.00 64 1013.8
20260905221337 90 97 1.0 2.0 0.00 0.00 0.00 62 1013.9
20260905220833 91 58 0.0 2.0 0.00 0.00 0.00 62 1013.5
20260905220329 92 61 0.0 1.0 0.00 0.00 0.00 60 1013.8
20260905215828 93 61 0.0 2.0 0.00 0.00 0.00 58 1013.6
20260905215323 94 61 0.0 0.0 0.00 0.00 0.00 56 1013.5
20260905214820 93 67 0.0 1.0 0.00 0.00 0.00 54 1013.4
20260905214315 93 63 0.0 1.0 0.00 0.00 0.00 55 1013.4
20260905213810 93 3 0.0 1.0 0.00 0.00 0.00 55 1013.6
20260905213307 93 55 0.0 1.0 0.00 0.00 0.00 56 1013.6
20260905212806 93 63 0.0 1.0 0.00 0.00 0.00 54 1013.7
20260905212301 93 59 0.0 1.0 0.00 0.00 0.00 54 1013.7
20260905211801 93 42 0.0 1.0 0.00 0.00 0.00 56 1013.9
20260905211256 93 54 0.0 1.0 0.00 0.00 0.00 56 1013.9
20260905210753 93 58 0.0 2.0 0.00 0.00 0.00 56 1013.8
20260905210252 94 43 0.0 2.0 0.00 0.00 0.00 56 1014.0
20260905205751 94 63 0.0 1.0 0.00 0.00 0.00 55 1014.0
20260905205246 95 72 0.0 0.0 0.00 0.00 0.00 53 1014.0
20260905204745 95 50 1.0 2.0 0.00 0.00 0.00 54 1014.2
20260905204241 95 71 1.0 1.0 0.00 0.00 0.00 51 1014.2
20260905203740 96 36 1.0 2.0 0.00 0.00 0.00 52 1014.0
20260905203236 96 51 0.0 1.0 0.00 0.00 0.00 52 1014.2
20260905202731 96 73 0.0 1.0 0.00 0.00 0.00 51 1014.3
20260905202226 96 67 0.0 3.0 0.00 0.00 0.00 52 1014.3
20260905200108 97 109 2.0 2.0 0.00 0.00 0.00 52 1014.6
20260905195602 97 109 2.0 2.0 0.00 0.00 0.00 52 1014.6
20260905195057 98 329 1.0 3.0 0.00 0.00 0.00 49 1014.7
20260905194556 96 105 1.0 2.0 0.00 0.00 0.00 49 1014.7
20260905194056 94 5 0.0 1.0 0.00 0.00 0.00 55 1014.8
20260905193545 92 54 0.0 1.0 0.00 0.00 0.00 57 1015.3
20260905193041 92 121 1.0 4.0 0.00 0.00 0.00 59 1015.0
20260905192535 93 40 1.0 3.0 0.00 0.00 0.00 59 1014.8
20260905192032 91 95 1.0 3.0 0.00 0.00 0.00 61 1015.0
20260905171820 93 120 2.0 4.0 0.00 0.00 0.00 57 1016.9
20260905171317 93 120 2.0 4.0 0.00 0.00 0.00 57 1016.9
20260905170813 94 93 3.0 4.0 0.00 0.00 0.00 56 1017.0
20260905170308 94 41 0.0 1.0 0.00 0.00 0.00 56 1017.1
20260905165807 93 67 0.0 1.0 0.00 0.00 0.00 58 1016.9
20260905165306 91 84 0.0 1.0 0.00 0.00 0.00 60 1017.0
20260905164803 92 73 1.0 1.0 0.00 0.00 0.00 61 1017.1
20260905164258 93 83 1.0 1.0 0.00 0.00 0.00 60 1017.2
20260905163753 92 56 0.0 1.0 0.00 0.00 0.00 61 1016.9
20260905163249 93 125 1.0 1.0 0.00 0.00 0.00 61 1017.1
20260905162745 92 91 0.0 1.0 0.00 0.00 0.00 63 1017.1
20260905162245 92 36 0.0 2.0 0.00 0.00 0.00 64 1017.0
20260905161739 91 105 0.0 1.0 0.00 0.00 0.00 66 1017.1
20260905161238 91 352 1.0 2.0 0.00 0.00 0.00 66 1017.2
20260905160737 89 353 1.0 2.0 0.00 0.00 0.00 67 1017.3
20260905160237 91 328 2.0 2.0 0.00 0.00 0.00 67 1017.2
20260905155732 89 66 1.0 2.0 0.00 0.00 0.00 68 1017.0
20260905155231 90 86 0.0 1.0 0.00 0.00 0.00 69 1016.9
20260905154725 89 65 0.0 1.0 0.00 0.00 0.00 68 1017.0
20260905154221 90 81 1.0 1.0 0.00 0.00 0.00 66 1017.1
20260905153716 91 229 1.0 3.0 0.00 0.00 0.00 67 1017.1
20260905153212 91 65 0.0 1.0 0.00 0.00 0.00 66 1017.1
20260905152707 91 161 1.0 2.0 0.00 0.00 0.00 67 1017.0
20260905152201 89 4 0.0 1.0 0.00 0.00 0.00 69 1017.0
20260905151655 89 40 1.0 1.0 0.00 0.00 0.00 69 1017.1
20260905151151 91 86 0.0 2.0 0.00 0.00 0.00 68 1016.9
20260905150646 90 67 0.0 1.0 0.00 0.00 0.00 70 1017.0
20260905150145 89 61 1.0 2.0 0.00 0.00 0.00 71 1017.0
20260905145643 88 62 0.0 1.0 0.00 0.00 0.00 73 1016.8
20260905145143 87 2 2.0 3.0 0.00 0.00 0.00 74 1016.9
20260905144637 88 79 2.0 2.0 0.00 0.00 0.00 74 1017.0
20260905144136 88 41 0.0 1.0 0.00 0.00 0.00 75 1017.0
20260905143632 87 70 0.0 1.0 0.00 0.00 0.00 76 1017.0
20260905143131 88 14 1.0 2.0 0.00 0.00 0.00 75 1017.2
20260905142630 88 52 0.0 1.0 0.00 0.00 0.00 74 1017.1
20260905142131 87 64 0.0 1.0 0.00 0.00 0.00 78 1017.0
20260905141631 87 68 0.0 1.0 0.00 0.00 0.00 79 1017.1
20260905141127 87 62 1.0 1.0 0.00 0.00 0.00 78 1017.1
20260905140622 86 58 0.0 0.0 0.00 0.00 0.00 78 1016.9
20260905140121 84 84 0.0 0.0 0.00 0.00 0.00 83 1017.0
20260905135617 84 62 0.0 0.0 0.00 0.00 0.00 84 1016.8
20260905135112 83 64 0.0 0.0 0.00 0.00 0.00 86 1016.8
20260905134607 82 58 0.0 0.0 0.00 0.00 0.00 86 1016.9
20260905134105 81 70 0.0 0.0 0.00 0.00 0.00 91 1016.7
20260905133601 80 67 0.0 0.0 0.00 0.00 0.00 93 1016.9
20260905133100 79 62 0.0 0.0 0.00 0.00 0.00 94 1016.7
20260905132600 78 64 0.0 1.0 0.00 0.00 0.00 94 1016.9
20260905132054 78 60 0.0 0.0 0.00 0.00 0.00 95 1016.9
20260905131550 78 66 0.0 1.0 0.00 0.00 0.00 96 1016.7
20260905131045 77 63 0.0 0.0 0.00 0.00 0.00 96 1016.5
20260905130544 77 62 0.0 0.0 0.00 0.00 0.00 97 1016.5
20260905130040 77 84 0.0 1.0 0.00 0.00 0.00 97 1016.5
20260905125539 77 76 0.0 1.0 0.00 0.00 0.00 97 1016.5
20260905125035 76 64 0.0 0.0 0.00 0.00 0.00 97 1016.3
20260905124531 76 64 0.0 1.0 0.00 0.00 0.00 97 1016.3
20260905124027 76 64 0.0 0.0 0.00 0.00 0.00 97 1016.3
20260905123522 76 62 0.0 0.0 0.00 0.00 0.00 97 1016.2
20260905123020 76 61 0.0 0.0 0.00 0.00 0.00 97 1016.3
20260905122519 76 62 0.0 0.0 0.00 0.00 0.00 97 1016.3
20260905122014 75 62 0.0 0.0 0.00 0.00 0.00 97 1016.1
20260905121509 75 60 0.0 0.0 0.00 0.00 0.00 97 1016.1
20260905121008 75 60 0.0 0.0 0.00 0.00 0.00 97 1016.1
20260905120502 75 62 0.0 0.0 0.00 0.00 0.00 97 1015.9
20260905115958 75 62 0.0 0.0 0.00 0.00 0.00 97 1015.9
20260905115457 75 62 0.0 0.0 0.00 0.00 0.00 97 1016.1
20260905114952 75 63 0.0 0.0 0.00 0.00 0.00 97 1016.0
20260905114452 75 61 0.0 0.0 0.00 0.00 0.00 96 1015.9
20260905113950 76 61 0.0 0.0 0.00 0.00 0.00 96 1015.8
20260905113446 76 61 0.0 0.0 0.00 0.00 0.00 96 1015.8
20260905112941 76 61 0.0 0.0 0.00 0.00 0.00 96 1015.8
20260905112436 76 60 0.0 0.0 0.00 0.00 0.00 96 1015.7
20260905111931 76 60 0.0 0.0 0.00 0.00 0.00 96 1015.6
20260905111432 76 60 0.0 0.0 0.00 0.00 0.00 96 1015.4
20260905110926 76 60 0.0 0.0 0.00 0.00 0.00 96 1015.7
20260905110425 76 60 0.0 0.0 0.00 0.00 0.00 96 1015.6
20260905105920 76 60 0.0 0.0 0.00 0.00 0.00 95 1015.7
20260905105420 76 60 0.0 0.0 0.00 0.00 0.00 95 1015.5
20260905104920 76 60 0.0 0.0 0.00 0.00 0.00 95 1015.5
20260905104416 76 60 0.0 0.0 0.00 0.00 0.00 95 1015.5
20260905103916 76 60 0.0 0.0 0.00 0.00 0.00 95 1015.6
20260905103411 76 60 0.0 0.0 0.00 0.00 0.00 95 1015.5
20260905102907 76 60 0.0 0.0 0.00 0.00 0.00 94 1015.3
20260905102403 77 60 0.0 0.0 0.00 0.00 0.00 94 1015.5
20260905101858 77 60 0.0 0.0 0.00 0.00 0.00 94 1015.6
20260905101356 77 60 0.0 0.0 0.00 0.00 0.00 94 1015.6
20260905100857 77 60 0.0 0.0 0.00 0.00 0.00 94 1015.4
20260905100353 77 60 0.0 0.0 0.00 0.00 0.00 94 1015.5
20260905095852 77 62 0.0 0.0 0.00 0.00 0.00 94 1015.5
20260905095347 77 62 0.0 0.0 0.00 0.00 0.00 94 1015.5
20260905094847 78 59 0.0 0.0 0.00 0.00 0.00 93 1015.3
20260905094342 78 62 0.0 0.0 0.00 0.00 0.00 93 1015.4
20260905093841 78 62 0.0 0.0 0.00 0.00 0.00 93 1015.4
20260905093337 78 356 1.0 1.0 0.00 0.00 0.00 93 1015.6
20260905092833 78 49 0.0 1.0 0.00 0.00 0.00 93 1015.4
20260905092332 78 45 0.0 0.0 0.00 0.00 0.00 93 1015.6
20260905091827 78 62 0.0 0.0 0.00 0.00 0.00 93 1015.4
20260905091327 78 60 0.0 0.0 0.00 0.00 0.00 93 1015.5
20260905090826 78 60 0.0 1.0 0.00 0.00 0.00 92 1015.4
20260905090322 78 65 0.0 0.0 0.00 0.00 0.00 92 1015.4
20260905085821 78 62 0.0 0.0 0.00 0.00 0.00 92 1015.2
20260905085316 78 55 0.0 0.0 0.00 0.00 0.00 92 1015.6
20260905084812 78 63 0.0 0.0 0.00 0.00 0.00 92 1015.4
20260905084311 78 61 0.0 0.0 0.00 0.00 0.00 91 1015.4
20260905083806 79 63 0.0 0.0 0.00 0.00 0.00 91 1015.2